sat.trackr.live / text

‹ back to catalog

PUNCH-NFI (SMEX 15A)

NORAD 63178 · 2025-047A

PAYLOAD ACTIVE UNKNOWN

§ Identity

Operator
Country
US
Launch date
2025-03-12
Launch site
AFWTR
Launch vehicle
Mass (kg)
RCS (m²)

External: N2YO · Heavens-Above · Gunter

§ Orbital elements

Epoch: 2026-05-25T01:49:45.846048Z

Period
97.64 min
Inclination
97.9565°
Eccentricity
0.0009998
Mean motion
14.74740291 rev/d
Perigee alt
639.0 km
Apogee alt
653.0 km
Semi-major
7,024.1 km
B*
6.8005e-5
RAAN
330.9570°
Arg perigee
228.0015°
Mean anomaly
132.0343°
Rev number
6,467

§ Raw data

PUNCH-NFI (SMEX 15A)1 63178U 25047A   26145.07622507  .00000405  00000+0  68005-4 0  99912 63178  97.9565 330.9570 0009998 228.0015 132.0343 14.74740291 64676

JSON: /api/v1/satellites/63178 · /tle

For live sub-satellite position, see the globe view (requires WebGL).

§ Visibility from observer

Set your observer location to see the next 7 days of passes ≥ 10°. The values pass through the URL so the page stays shareable.

No JS? Fill the form by hand. The geolocation button needs JavaScript.

§ Radio — SatNOGS DB

ModeDescriptionDownlinkUplink
FM S-band telemetry 2.216 GHz

1 transmitter · refreshed weekly from db.satnogs.org